This demonstration page uses our WeatherBlox Daily Observations layout. Learn more.

Hourly Observations for October 13, 2015

Temp ( °F °C ) Dew Point ( °F °C ) Humidity (%) Winds ( mph kmh ) Pressure ( in mb ) Visibility ( mi km ) Precip ( " mm )
12:15 am 00:15 Clear 49 9.2 31 -0.6 51 51 W 7 11 30.03 1017 10 16.0934 0 0
12:35 am 00:35 Clear 48 8.8 31 -0.6 52 52 W 6 9 30.03 1017 10 16.0934 0 0
12:55 am 00:55 Clear 47 8.2 31 -0.5 55 55 W 3 6 30.03 1017 10 16.0934 0 0
1:15 am 01:15 Clear 46 7.5 31 -0.3 58 58 WNW 6 9 30.03 1017 10 16.0934 0 0
1:35 am 01:35 Clear 47 8.3 31 -0.3 55 55 WNW 6 9 30.03 1017 10 16.0934 0 0
1:55 am 01:55 Clear 45 7.1 32 -0.1 61 61 WNW 5 7 30.03 1017 10 16.0934 0 0
2:15 am 02:15 Clear 44 6.6 32 -0.2 62 62 Calm 30.03 1017 10 16.0934 0 0
2:35 am 02:35 Clear 43 5.9 32 0 66 66 Calm 30.03 1017 10 16.0934 0 0
2:55 am 02:55 Clear 42 5.6 32 0 68 68 Calm 30.03 1017 10 16.0934 0 0
3:15 am 03:15 Clear 42 5.8 32 0 67 67 NW 3 6 30.03 1017 10 16.0934 0 0
3:35 am 03:35 Clear 41 5.2 32 0 69 69 WSW 3 6 30.06 1018 10 16.0934 0 0
3:55 am 03:55 Clear 41 5.1 33 0.4 72 72 Calm 30.06 1018 10 16.0934 0 0
4:15 am 04:15 Clear 41 4.8 33 0.5 74 74 SW 3 6 30.06 1018 10 16.0934 0 0
4:35 am 04:35 Clear 40 4.7 33 0.4 74 74 Calm 30.06 1018 10 16.0934 0 0
4:55 am 04:55 Clear 40 4.6 33 0.6 76 76 WSW 3 6 30.06 1018 10 16.0934 0 0
5:15 am 05:15 Clear 40 4.3 33 0.4 76 76 W 3 6 30.06 1018 10 16.0934 0 0
5:35 am 05:35 Clear 42 5.4 32 0.1 69 69 Calm 30.06 1018 10 16.0934 0 0
5:55 am 05:55 Clear 41 4.9 32 0 71 71 WSW 3 6 30.06 1018 10 16.0934 0 0
6:15 am 06:15 Clear 41 5.1 32 0.1 70 70 SW 5 7 30.06 1018 10 16.0934 0 0
6:35 am 06:35 Clear 42 5.4 32 0.2 69 69 WSW 3 6 30.06 1018 10 16.0934 0 0
6:55 am 06:55 Clear 40 4.5 32 0.2 74 74 Calm 30.06 1018 10 16.0934 0 0
7:15 am 07:15 Clear 41 5 33 0.4 72 72 Calm 30.06 1018 10 16.0934 0 0
7:35 am 07:35 Clear 42 5.7 32 0.2 68 68 SW 3 6 30.03 1017 10 16.0934 0 0
7:55 am 07:55 Sunny 40 4.3 32 0 74 74 Calm 30.06 1018 10 16.0934 0 0
8:15 am 08:15 Sunny 42 5.6 32 0.1 68 68 Calm 30.03 1017 10 16.0934 0 0
8:35 am 08:35 Sunny 44 6.8 35 1.7 70 70 Calm 30.03 1017 10 16.0934 0 0
8:55 am 08:55 Sunny 50 10.1 37 2.9 61 61 Calm 30 1016 10 16.0934 0 0
9:15 am 09:15 Sunny 55 12.6 33 0.8 45 45 Calm 30 1016 10 16.0934 0 0
9:35 am 09:35 Sunny 57 13.9 36 2 45 45 Calm 30 1016 10 16.0934 0 0
9:55 am 09:55 Sunny 61 16.2 32 -0.1 33 33 SW 3 6 30 1016 10 16.0934 0 0
10:15 am 10:15 Sunny 65 18.5 29 -1.4 26 26 SW 6 9 29.97 1015 10 16.0934 0 0
10:35 am 10:35 Sunny 68 19.9 28 -2.2 22 22 SW 8 13 29.94 1014 10 16.0934 0 0
10:55 am 10:55 Sunny 69 20.8 28 -2.3 21 21 SW 5 7 29.94 1014 10 16.0934 0 0
11:15 am 11:15 Sunny 71 21.5 26 -3.5 18 18 WSW 7 11 29.94 1014 10 16.0934 0 0
11:35 am 11:35 Sunny 72 22.3 25 -3.9 17 17 WSW 7 11 29.94 1014 10 16.0934 0 0
11:55 am 11:55 Sunny 73 23 26 -3.5 17 17 WSW 6 9 29.94 1014 10 16.0934 0 0
12:15 pm 12:15 Sunny 75 23.8 26 -3.1 17 17 WSW 6 9 29.91 1013 10 16.0934 0 0
12:35 pm 12:35 Sunny 76 24.4 28 -2.4 17 17 WSW 6 9 29.91 1013 10 16.0934 0 0
12:55 pm 12:55 Sunny 77 25 27 -2.7 16 16 W 6 9 29.88 1012 10 16.0934 0 0
1:15 pm 13:15 Sunny 78 25.5 28 -2.5 16 16 W 8 13 29.88 1012 10 16.0934 0 0
1:35 pm 13:35 Sunny 79 26.1 29 -1.8 16 16 W 9 15 29.88 1012 10 16.0934 0 0
1:55 pm 13:55 Sunny 79 26.3 29 -1.8 16 16 WSW 6 9 29.88 1012 10 16.0934 0 0
2:15 pm 14:15 Sunny 81 27.2 29 -1.6 15 15 WNW 10 17 29.85 1011 10 16.0934 0 0
2:35 pm 14:35 Sunny 81 27.3 29 -1.4 15 15 W 9 15 29.85 1011 10 16.0934 0 0
2:55 pm 14:55 Sunny 82 27.9 29 -1.4 15 15 NNW 7 11 29.83 1010 10 16.0934 0 0
3:15 pm 15:15 Sunny 82 27.8 29 -1.6 14 14 WNW 14 22 29.83 1010 10 16.0934 0 0
3:35 pm 15:35 Sunny 82 28 29 -1.9 14 14 NNW 13 20 29.83 1010 10 16.0934 0 0
3:55 pm 15:55 Sunny 82 27.7 29 -1.5 15 15 NNW 9 15 29.83 1010 10 16.0934 0 0
4:15 pm 16:15 Sunny 82 27.6 30 -1.3 15 15 WNW 9 15 29.83 1010 10 16.0934 0 0
4:35 pm 16:35 Sunny 82 27.8 30 -1.2 15 15 NNW 13 20 29.83 1010 10 16.0934 0 0
4:55 pm 16:55 Sunny 82 27.9 29 -1.5 15 15 NW 14 22 29.83 1010 10 16.0934 0 0
5:15 pm 17:15 Sunny 82 27.5 29 -1.8 15 15 NNW 9 15 29.83 1010 10 16.0934 0 0
5:35 pm 17:35 Sunny 81 27.2 29 -1.9 15 15 NNW 10 17 29.83 1010 10 16.0934 0 0
5:55 pm 17:55 Sunny 80 26.5 29 -1.9 15 15 N 16 26 29.83 1010 10 16.0934 0 0
6:15 pm 18:15 Sunny 77 25.1 31 -0.8 18 18 N 9 15 29.85 1011 10 16.0934 0 0
6:35 pm 18:35 Sunny 74 23.5 32 0 21 21 N 7 11 29.88 1012 10 16.0934 0 0
6:55 pm 18:55 Sunny 69 20.3 33 0.4 27 27 N 6 9 29.91 1013 10 16.0934 0 0
7:15 pm 19:15 Clear 65 18.6 33 0.4 30 30 N 6 9 29.94 1014 10 16.0934 0 0
7:35 pm 19:35 Clear 60 15.5 34 1 38 38 NNE 6 9 29.94 1014 7 11.26538 0 0
7:55 pm 19:55 Clear 62 16.9 33 0.6 33 33 N 5 7 29.97 1015 10 16.0934 0 0
8:15 pm 20:15 Clear 60 15.8 34 1.1 37 37 NNE 3 6 30 1016 7 11.26538 0 0
8:35 pm 20:35 Clear 59 15.2 34 1.3 39 39 N 3 6 30 1016 10 16.0934 0 0
8:55 pm 20:55 Clear 55 13 35 1.5 46 46 N 3 6 30 1016 10 16.0934 0 0
9:15 pm 21:15 Clear 54 12.4 36 2.1 50 50 NNE 7 11 30.03 1017 10 16.0934 0 0
9:35 pm 21:35 Clear 53 11.9 36 2.4 52 52 NE 5 7 30.03 1017 10 16.0934 0 0
9:55 pm 21:55 Clear 54 12.1 37 2.5 52 52 NE 7 11 30.03 1017 10 16.0934 0 0
10:15 pm 22:15 Clear 53 11.6 37 2.5 54 54 NNE 8 13 30.03 1017 10 16.0934 0 0
10:35 pm 22:35 Clear 50 10.2 37 2.6 60 60 NE 7 11 30.03 1017 10 16.0934 0 0
10:55 pm 22:55 Clear 56 13.5 36 2.4 47 47 Calm 30.03 1017 10 16.0934 0 0
11:15 pm 23:15 Clear 52 11 36 2.4 56 56 NNE 5 7 30.06 1018 10 16.0934 0 0
11:35 pm 23:35 Clear 53 11.7 37 2.5 54 54 Calm 30.06 1018 10 16.0934 0 0
11:55 pm 23:55 Clear 52 11 37 2.6 56 56 Calm 30.06 1018 10 16.0934 0 0

Powered by AerisWeather